Location: Henham
(51.9333°N, 0.2500°E)
Time: 15:22:08
(UTC+00:00)

Cosmos 1908 - Pass Details

Date: 23 October 2019
Orbit: 511 x 532 km, 82.5° (Epoch: 11 November)

Event Time Altitude Azimuth Distance (km) Brightness Sun altitude
Rises 18:06:05 0° 194° (SSW) 2,659 7.0 -12.5°
Reaches altitude 10° 18:08:14 10° 196° (SSW) 1,771 6.1 -12.8°
Maximum altitude 18:12:06 73° 281° (W) 556 3.5 -13.4°
Drops below altitude 10° 18:16:00 10° 7° (N) 1,774 5.8 -14.0°
Sets 18:18:09 0° 10° (N) 2,664 6.7 -14.4°
